When you browse on this site, cookies collect data to enhance your experience and personalize the content and advertising you see.
Visit our Privacy Policy to learn more. By continuing to use the site, you agree to this use of cookies and data.
  • In Hungary
  • List of Countries
  • For 7 days
  • Water Temperature
  • Satellite Maps
  • Weather Map
  • News
  • Weather Widgets
  • user-avatar
    Login

    Hourly Weather Chillupar

    Today, 21 January, Monday

    Time Temperature Precipitation Wind Pressure Humidity
    00:00 +14°C° 0 mm 0 mps 755 mmHg 66%
    01:00 +14°C° 0 mm 0 mps 755 mmHg 67%
    02:00 +13°C° 0 mm 0 mps 755 mmHg 68%
    03:00 +13°C° 0 mm 0 mps 755 mmHg 69%
    04:00 +13°C° 0 mm 0 mps 755 mmHg 71%
    05:00 +13°C° 0 mm 0 mps 755 mmHg 73%
    06:00 +13°C° 0 mm 1 mps 755 mmHg 70%
    07:00 +15°C° 0 mm 1 mps 755 mmHg 68%
    08:00 +16°C° 0 mm 1 mps 756 mmHg 66%
    09:00 +18°C° 0 mm 1 mps 756 mmHg 64%
    10:00 +19°C° 0 mm 2 mps 756 mmHg 59%
    11:00 +21°C° 0 mm 2 mps 756 mmHg 53%
    12:00 +24°C° 0 mm 2 mps 756 mmHg 47%
    13:00 +25°C° 0 mm 2 mps 756 mmHg 45%
    14:00 +25°C° 0 mm 2 mps 755 mmHg 43%
    15:00 +26°C° 0 mm 1 mps 754 mmHg 40%
    16:00 +24°C° 0 mm 1 mps 754 mmHg 45%
    17:00 +23°C° 0 mm 1 mps 754 mmHg 50%
    18:00 +21°C° 0 mm 1 mps 753 mmHg 55%
    19:00 +20°C° 0 mm 1 mps 754 mmHg 56%
    20:00 +20°C° 0 mm 1 mps 754 mmHg 58%
    21:00 +18°C° 0 mm 2 mps 754 mmHg 59%
    22:00 +17°C° 0 mm 2 mps 754 mmHg 60%
    23:00 +17°C° 0 mm 2 mps 754 mmHg 60%

    Tomorrow, 22 January, Tuesday

    Time Temperature Precipitation Wind Pressure Humidity
    00:00 +17°C° 0 mm 3 mps 754 mmHg 60%
    01:00 +16°C° 0 mm 3 mps 754 mmHg 60%
    02:00 +16°C° 0 mm 3 mps 754 mmHg 61%
    03:00 +16°C° 0 mm 3 mps 754 mmHg 61%
    04:00 +14°C° 0 mm 3 mps 754 mmHg 62%
    05:00 +14°C° 0 mm 3 mps 754 mmHg 63%
    06:00 +14°C° 0 mm 3 mps 754 mmHg 63%
    07:00 +16°C° 0 mm 3 mps 754 mmHg 63%
    08:00 +17°C° 0 mm 4 mps 755 mmHg 62%
    09:00 +18°C° 0 mm 4 mps 755 mmHg 61%
    10:00 +20°C° 0 mm 4 mps 755 mmHg 57%
    11:00 +22°C° 0 mm 4 mps 756 mmHg 52%
    12:00 +25°C° 0 mm 4 mps 756 mmHg 48%
    13:00 +26°C° 0 mm 4 mps 755 mmHg 46%
    14:00 +26°C° 0 mm 4 mps 754 mmHg 45%
    15:00 +27°C° 0 mm 4 mps 754 mmHg 44%
    16:00 +25°C° 0 mm 3 mps 754 mmHg 47%
    17:00 +24°C° 0 mm 3 mps 754 mmHg 50%
    18:00 +22°C° 0 mm 3 mps 754 mmHg 53%
    19:00 +21°C° 0.2 mm 3 mps 754 mmHg 57%
    20:00 +20°C° 0.2 mm 3 mps 755 mmHg 61%
    21:00 +19°C° 0.2 mm 4 mps 755 mmHg 65%
    22:00 +19°C° 0.1 mm 4 mps 755 mmHg 64%
    23:00 +19°C° 0.1 mm 5 mps 755 mmHg 62%

    Day after tomorrow, 23 January, Wednesday

    Time Temperature Precipitation Wind Pressure Humidity
    00:00 +17°C° 0.1 mm 5 mps 755 mmHg 61%
    01:00 +16°C° 0.2 mm 5 mps 755 mmHg 62%
    02:00 +16°C° 0.2 mm 5 mps 755 mmHg 63%
    03:00 +15°C° 0.2 mm 5 mps 755 mmHg 64%
    04:00 +15°C° 0.2 mm 4 mps 755 mmHg 66%
    05:00 +15°C° 0.2 mm 4 mps 755 mmHg 68%
    06:00 +16°C° 0.2 mm 3 mps 755 mmHg 70%
    07:00 +16°C° 1.1 mm 3 mps 755 mmHg 71%
    08:00 +17°C° 1.1 mm 3 mps 756 mmHg 72%
    09:00 +17°C° 1.1 mm 3 mps 757 mmHg 72%
    10:00 +18°C° 1 mm 3 mps 757 mmHg 69%
    11:00 +19°C° 1 mm 4 mps 757 mmHg 66%
    12:00 +20°C° 1 mm 5 mps 757 mmHg 64%
    13:00 +21°C° 0.7 mm 5 mps 756 mmHg 64%
    14:00 +21°C° 0.7 mm 5 mps 755 mmHg 65%
    15:00 +21°C° 0.7 mm 5 mps 755 mmHg 66%
    16:00 +20°C° 0.6 mm 4 mps 755 mmHg 72%
    17:00 +19°C° 0.6 mm 4 mps 755 mmHg 77%
    18:00 +18°C° 0.6 mm 4 mps 755 mmHg 82%
    19:00 +17°C° 0.3 mm 4 mps 755 mmHg 83%
    20:00 +15°C° 0.3 mm 4 mps 756 mmHg 84%
    21:00 +15°C° 0.3 mm 4 mps 756 mmHg 85%
    22:00 +15°C° 0.1 mm 4 mps 756 mmHg 85%
    23:00 +16°C° 0.1 mm 3 mps 756 mmHg 85%

    24 January, Thursday

    Time Temperature Precipitation Wind Pressure Humidity
    00:00 +14°C° 0.1 mm 3 mps 756 mmHg 85%
    01:00 +14°C° 0.4 mm 3 mps 756 mmHg 86%
    02:00 +14°C° 0.4 mm 3 mps 755 mmHg 87%
    03:00 +14°C° 0.4 mm 3 mps 755 mmHg 88%
    04:00 +15°C° 0.3 mm 2 mps 755 mmHg 87%
    05:00 +15°C° 0.3 mm 2 mps 755 mmHg 87%
    06:00 +15°C° 0.3 mm 2 mps 755 mmHg 86%
    07:00 +16°C° 0 mm 2 mps 756 mmHg 81%
    08:00 +17°C° 0 mm 2 mps 757 mmHg 76%
    09:00 +19°C° 0 mm 1 mps 758 mmHg 70%
    10:00 +19°C° 0 mm 2 mps 758 mmHg 63%
    11:00 +21°C° 0 mm 2 mps 758 mmHg 56%
    12:00 +24°C° 0 mm 2 mps 758 mmHg 49%
    13:00 +25°C° 0 mm 2 mps 757 mmHg 47%
    14:00 +26°C° 0 mm 2 mps 756 mmHg 46%
    15:00 +26°C° 0 mm 2 mps 755 mmHg 45%
    16:00 +25°C° 0 mm 2 mps 755 mmHg 49%
    17:00 +24°C° 0 mm 2 mps 754 mmHg 52%
    18:00 +22°C° 0 mm 1 mps 754 mmHg 56%
    19:00 +21°C° 0 mm 2 mps 754 mmHg 56%
    20:00 +20°C° 0 mm 2 mps 755 mmHg 55%
    21:00 +19°C° 0 mm 2 mps 755 mmHg 55%
    22:00 +19°C° 0 mm 1 mps 755 mmHg 56%
    23:00 +19°C° 0 mm 1 mps 755 mmHg 57%

    25 January, Friday

    Time Temperature Precipitation Wind Pressure Humidity
    00:00 +18°C° 0 mm 1 mps 755 mmHg 58%
    01:00 +18°C° 0.1 mm 1 mps 755 mmHg 58%
    02:00 +16°C° 0.1 mm 1 mps 755 mmHg 59%
    03:00 +16°C° 0.1 mm 1 mps 754 mmHg 60%
    04:00 +16°C° 0 mm 1 mps 754 mmHg 60%
    05:00 +16°C° 0 mm 2 mps 755 mmHg 61%
    06:00 +16°C° 0 mm 2 mps 755 mmHg 61%
    07:00 +17°C° 0 mm 2 mps 755 mmHg 59%
    08:00 +17°C° 0 mm 2 mps 756 mmHg 57%
    09:00 +18°C° 0 mm 2 mps 757 mmHg 55%
    10:00 +19°C° 0.1 mm 2 mps 757 mmHg 56%
    11:00 +21°C° 0.1 mm 3 mps 757 mmHg 57%
    12:00 +22°C° 0.1 mm 3 mps 758 mmHg 58%
    13:00 +22°C° 0.2 mm 3 mps 757 mmHg 63%
    14:00 +21°C° 0.2 mm 3 mps 756 mmHg 67%
    15:00 +21°C° 0.2 mm 3 mps 756 mmHg 72%
    16:00 +20°C° 0.5 mm 3 mps 756 mmHg 78%
    17:00 +19°C° 0.5 mm 4 mps 756 mmHg 83%
    18:00 +18°C° 0.5 mm 4 mps 756 mmHg 88%
    19:00 +18°C° 0.2 mm 3 mps 756 mmHg 89%
    20:00 +18°C° 0.2 mm 2 mps 757 mmHg 90%
    21:00 +18°C° 0.2 mm 1 mps 757 mmHg 92%
    22:00 +17°C° 0.5 mm 2 mps 757 mmHg 90%
    23:00 +17°C° 0.5 mm 4 mps 757 mmHg 89%

    26 January, Saturday

    Time Temperature Precipitation Wind Pressure Humidity
    00:00 +16°C° 0.5 mm 5 mps 757 mmHg 87%
    01:00 +15°C° 1 mm 5 mps 757 mmHg 87%
    02:00 +15°C° 1 mm 5 mps 757 mmHg 87%
    03:00 +15°C° 1 mm 4 mps 757 mmHg 87%
    04:00 +15°C° 0.5 mm 4 mps 757 mmHg 88%
    05:00 +16°C° 0.5 mm 3 mps 757 mmHg 89%
    06:00 +16°C° 0.5 mm 3 mps 758 mmHg 90%
    07:00 +15°C° 0.1 mm 4 mps 758 mmHg 87%
    08:00 +17°C° 0.1 mm 4 mps 759 mmHg 84%
    09:00 +16°C° 0.1 mm 5 mps 759 mmHg 82%
    10:00 +19°C° 0 mm 5 mps 759 mmHg 76%
    11:00 +20°C° 0 mm 5 mps 759 mmHg 70%
    12:00 +22°C° 0 mm 5 mps 759 mmHg 64%
    13:00 +22°C° 0 mm 5 mps 758 mmHg 62%
    14:00 +23°C° 0 mm 5 mps 757 mmHg 60%
    15:00 +23°C° 0 mm 5 mps 757 mmHg 58%
    16:00 +22°C° 0 mm 4 mps 757 mmHg 63%
    17:00 +20°C° 0 mm 4 mps 757 mmHg 69%
    18:00 +19°C° 0 mm 3 mps 756 mmHg 74%
    19:00 +19°C° 0 mm 3 mps 757 mmHg 74%
    20:00 +18°C° 0 mm 2 mps 757 mmHg 75%
    21:00 +17°C° 0 mm 2 mps 758 mmHg 75%
    22:00 +17°C° 0 mm 2 mps 758 mmHg 76%
    23:00 +17°C° 0 mm 2 mps 758 mmHg 77%
    Show more